Location: Unspecified
(0.0000°N, 0.0000°E)
Time: 17:30:18
(UTC+00:00)

Altair - Visible Passes

Search period start: 05 July 2015 00:00
Search period end: 15 July 2015 00:00
Orbit: 1502 x 1682 km, 47.2° (Epoch: 04 July)

Date Brightness Start Highest point End Pass type
(mag) Time Alt. Az. Time Alt. Az. Time Alt. Az.
05 Jul 8.3 02:41:30 39° E 02:41:30 39° E 02:48:00 10° ENE visible
05 Jul 8.1 04:39:34 25° W 04:43:55 38° NW 04:52:16 10° NNE visible
06 Jul 8.8 02:18:05 28° E 02:18:05 28° E 02:22:37 10° ENE visible
06 Jul 7.9 04:16:07 36° W 04:18:45 42° NW 04:27:21 10° NNE visible
07 Jul 9.2 01:54:36 19° E 01:54:36 19° E 01:57:11 10° ENE visible
07 Jul 7.7 03:52:39 46° WNW 03:53:36 48° NW 04:02:24 10° NNE visible
08 Jul 9.6 01:31:05 12° ENE 01:31:05 12° ENE 01:31:42 10° ENE visible
08 Jul 7.7 03:29:08 53° NW 03:29:08 53° NW 03:37:24 10° NNE visible
09 Jul 7.9 03:05:35 49° N 03:05:35 49° N 03:12:24 10° NNE visible
10 Jul 8.3 02:41:59 39° NNE 02:41:59 39° NNE 02:47:21 10° NNE visible
10 Jul 9.2 04:41:13 10° WNW 04:43:45 11° NW 04:45:26 10° NNW visible
11 Jul 8.7 02:18:19 30° NNE 02:18:19 30° NNE 02:22:17 10° NE visible
11 Jul 9.1 04:16:21 12° WNW 04:18:26 13° NW 04:21:50 10° NNW visible
12 Jul 9.1 01:54:37 21° NE 01:54:37 21° NE 01:57:11 10° NE visible
12 Jul 9.0 03:52:39 15° NW 03:53:09 15° NW 03:57:38 10° NNW visible
13 Jul 9.5 01:30:53 15° NE 01:30:53 15° NE 01:32:04 10° NE visible
13 Jul 9.0 03:28:54 17° NW 03:28:54 17° NW 03:33:13 10° N visible
14 Jul 9.1 03:05:07 18° NNW 03:05:07 18° NNW 03:08:40 10° N visible
